| time (UTC) | temp C | wind direction | speed KPH | gust KPH | rain 1hr cm | rain 24hr cm | rain mn cm | humidity % | barometer mb |
| 20260830235819 | 19 | 63 | 19.3 | 32.2 | 0.00 | 0.00 | 0.00 | 83 | 1022.4 |
| 20260830235323 | 19 | 56 | 17.7 | 33.8 | 0.00 | 0.00 | 0.00 | 83 | 1022.5 |
| 20260830234818 | 19 | 360 | 14.5 | 33.8 | 0.00 | 0.00 | 0.00 | 83 | 1022.6 |
| 20260830234315 | 19 | 27 | 16.1 | 33.8 | 0.00 | 0.00 | 0.00 | 83 | 1022.6 |
| 20260830233839 | 19 | 334 | 19.3 | 29.0 | 0.00 | 0.00 | 0.00 | 83 | 1022.6 |
| 20260830233340 | 19 | 41 | 16.1 | 35.4 | 0.00 | 0.00 | 0.00 | 83 | 1022.7 |
| 20260830232829 | 19 | 54 | 19.3 | 35.4 | 0.00 | 0.00 | 0.00 | 83 | 1022.7 |
| 20260830232323 | 19 | 63 | 12.9 | 32.2 | 0.00 | 0.00 | 0.00 | 83 | 1022.5 |
| 20260830231825 | 19 | 360 | 17.7 | 32.2 | 0.00 | 0.00 | 0.00 | 83 | 1022.6 |
| 20260830231320 | 19 | 26 | 16.1 | 30.6 | 0.00 | 0.00 | 0.00 | 83 | 1022.6 |
| 20260830230818 | 20 | 80 | 16.1 | 37.0 | 0.00 | 0.00 | 0.00 | 83 | 1022.6 |
| 20260830230315 | 20 | 53 | 19.3 | 37.0 | 0.00 | 0.00 | 0.00 | 83 | 1022.4 |
| 20260830225836 | 20 | 39 | 17.7 | 37.0 | 0.00 | 0.00 | 0.00 | 83 | 1022.5 |
| 20260830225333 | 20 | 360 | 17.7 | 37.0 | 0.00 | 0.00 | 0.00 | 83 | 1022.5 |
| 20260830224816 | 20 | 72 | 19.3 | 37.0 | 0.00 | 0.00 | 0.00 | 83 | 1022.3 |
| 20260830224328 | 20 | 34 | 16.1 | 45.1 | 0.00 | 0.00 | 0.00 | 83 | 1022.3 |
| 20260830223829 | 20 | 360 | 22.5 | 45.1 | 0.00 | 0.00 | 0.00 | 83 | 1022.2 |
| 20260830223323 | 20 | 360 | 14.5 | 35.4 | 0.00 | 0.00 | 0.00 | 83 | 1022.4 |
| 20260830222827 | 20 | 77 | 19.3 | 35.4 | 0.00 | 0.00 | 0.00 | 83 | 1022.3 |
| 20260830222319 | 20 | 53 | 17.7 | 33.8 | 0.00 | 0.00 | 0.00 | 83 | 1022.2 |
| 20260830221819 | 20 | 338 | 16.1 | 38.6 | 0.00 | 0.00 | 0.00 | 83 | 1022.2 |
| 20260830221315 | 20 | 360 | 17.7 | 40.2 | 0.00 | 0.00 | 0.00 | 83 | 1022.1 |
| 20260830220817 | 20 | 360 | 17.7 | 37.0 | 0.00 | 0.00 | 0.00 | 83 | 1022.2 |
| 20260830220338 | 20 | 40 | 20.9 | 37.0 | 0.00 | 0.00 | 0.00 | 83 | 1022.2 |
| 20260830215812 | 20 | 332 | 19.3 | 37.0 | 0.00 | 0.00 | 0.00 | 83 | 1022.2 |
| 20260830215334 | 20 | 82 | 19.3 | 33.8 | 0.00 | 0.00 | 0.00 | 83 | 1022.2 |
| 20260830214859 | 20 | 52 | 17.7 | 33.8 | 0.00 | 0.00 | 0.00 | 82 | 1022.2 |
| 20260830214333 | 20 | 42 | 19.3 | 32.2 | 0.00 | 0.00 | 0.00 | 82 | 1022.1 |
| 20260830213828 | 20 | 355 | 17.7 | 33.8 | 0.00 | 0.00 | 0.00 | 82 | 1021.9 |
| 20260830213329 | 20 | 355 | 17.7 | 33.8 | 0.00 | 0.00 | 0.00 | 82 | 1022.0 |
| 20260830212825 | 20 | 58 | 19.3 | 37.0 | 0.00 | 0.00 | 0.00 | 82 | 1021.9 |
| 20260830212328 | 20 | 360 | 19.3 | 37.0 | 0.00 | 0.00 | 0.00 | 81 | 1021.9 |
| 20260830211825 | 20 | 59 | 14.5 | 41.8 | 0.00 | 0.00 | 0.00 | 81 | 1021.8 |
| 20260830211320 | 20 | 312 | 20.9 | 35.4 | 0.00 | 0.00 | 0.00 | 81 | 1021.9 |
| 20260830210843 | 20 | 38 | 17.7 | 40.2 | 0.00 | 0.00 | 0.00 | 81 | 1021.8 |
| 20260830210317 | 20 | 360 | 19.3 | 40.2 | 0.00 | 0.00 | 0.00 | 81 | 1021.9 |
| 20260830205820 | 20 | 38 | 16.1 | 32.2 | 0.00 | 0.00 | 0.00 | 81 | 1021.8 |
| 20260830205343 | 20 | 9 | 19.3 | 32.2 | 0.00 | 0.00 | 0.00 | 81 | 1021.8 |
| 20260830204820 | 20 | 360 | 16.1 | 32.2 | 0.00 | 0.00 | 0.00 | 81 | 1021.8 |
| 20260830204341 | 20 | 360 | 19.3 | 32.2 | 0.00 | 0.00 | 0.00 | 81 | 1021.9 |
| 20260830203815 | 20 | 42 | 16.1 | 35.4 | 0.00 | 0.00 | 0.00 | 80 | 1021.8 |
| 20260830203358 | 20 | 360 | 17.7 | 35.4 | 0.00 | 0.00 | 0.00 | 80 | 1021.7 |
| 20260830202830 | 20 | 80 | 17.7 | 33.8 | 0.00 | 0.00 | 0.00 | 80 | 1021.7 |
| 20260830202319 | 20 | 343 | 17.7 | 37.0 | 0.00 | 0.00 | 0.00 | 79 | 1021.6 |
| 20260830201837 | 21 | 53 | 17.7 | 37.0 | 0.00 | 0.00 | 0.00 | 79 | 1021.5 |
| 20260830201325 | 21 | 51 | 16.1 | 30.6 | 0.00 | 0.00 | 0.00 | 79 | 1021.6 |
| 20260830200858 | 21 | 37 | 17.7 | 33.8 | 0.00 | 0.00 | 0.00 | 78 | 1021.5 |
| 20260830200327 | 21 | 355 | 16.1 | 33.8 | 0.00 | 0.00 | 0.00 | 78 | 1021.6 |
| 20260830195824 | 21 | 360 | 19.3 | 33.8 | 0.00 | 0.00 | 0.00 | 78 | 1021.5 |
| 20260830195347 | 21 | 360 | 17.7 | 35.4 | 0.00 | 0.00 | 0.00 | 77 | 1021.5 |
| 20260830194813 | 21 | 319 | 16.1 | 43.5 | 0.00 | 0.00 | 0.00 | 77 | 1021.3 |
| 20260830194336 | 21 | 14 | 17.7 | 43.5 | 0.00 | 0.00 | 0.00 | 76 | 1021.3 |
| 20260830193830 | 21 | 65 | 16.1 | 32.2 | 0.00 | 0.00 | 0.00 | 76 | 1021.2 |
| 20260830193346 | 21 | 32 | 17.7 | 32.2 | 0.00 | 0.00 | 0.00 | 76 | 1021.1 |
| 20260830192821 | 21 | 360 | 19.3 | 32.2 | 0.00 | 0.00 | 0.00 | 76 | 1021.1 |
| 20260830192325 | 21 | 355 | 16.1 | 35.4 | 0.00 | 0.00 | 0.00 | 75 | 1021.0 |
| 20260830191842 | 21 | 61 | 17.7 | 35.4 | 0.00 | 0.00 | 0.00 | 75 | 1021.1 |
| 20260830191325 | 22 | 360 | 17.7 | 33.8 | 0.00 | 0.00 | 0.00 | 75 | 1021.2 |
| 20260830190822 | 22 | 355 | 14.5 | 32.2 | 0.00 | 0.00 | 0.00 | 74 | 1020.9 |
| 20260830190318 | 22 | 340 | 14.5 | 32.2 | 0.00 | 0.00 | 0.00 | 74 | 1021.0 |
| 20260830185819 | 22 | 360 | 12.9 | 25.7 | 0.00 | 0.00 | 0.00 | 74 | 1021.0 |
| 20260830185316 | 22 | 55 | 12.9 | 25.7 | 0.00 | 0.00 | 0.00 | 73 | 1021.0 |
| 20260830184820 | 22 | 106 | 11.3 | 29.0 | 0.00 | 0.00 | 0.00 | 73 | 1021.0 |
| 20260830184315 | 22 | 51 | 11.3 | 29.0 | 0.00 | 0.00 | 0.00 | 72 | 1021.0 |
| 20260830183818 | 23 | 44 | 12.9 | 27.4 | 0.00 | 0.00 | 0.00 | 72 | 1021.0 |
| 20260830183358 | 23 | 331 | 12.9 | 29.0 | 0.00 | 0.00 | 0.00 | 72 | 1021.0 |
| 20260830182839 | 23 | 42 | 11.3 | 30.6 | 0.00 | 0.00 | 0.00 | 72 | 1021.2 |
| 20260830182314 | 23 | 34 | 14.5 | 30.6 | 0.00 | 0.00 | 0.00 | 72 | 1021.1 |
| 20260830181858 | 23 | 46 | 16.1 | 32.2 | 0.00 | 0.00 | 0.00 | 72 | 1021.2 |
| 20260830181333 | 23 | 342 | 16.1 | 32.2 | 0.00 | 0.00 | 0.00 | 71 | 1021.0 |
| 20260830180830 | 23 | 48 | 17.7 | 32.2 | 0.00 | 0.00 | 0.00 | 70 | 1021.1 |
| 20260830180354 | 23 | 360 | 12.9 | 27.4 | 0.00 | 0.00 | 0.00 | 69 | 1021.1 |
| 20260830175837 | 23 | 326 | 16.1 | 27.4 | 0.00 | 0.00 | 0.00 | 69 | 1021.2 |
| 20260830175315 | 23 | 360 | 14.5 | 30.6 | 0.00 | 0.00 | 0.00 | 69 | 1021.1 |
| 20260830174831 | 23 | 360 | 17.7 | 30.6 | 0.00 | 0.00 | 0.00 | 68 | 1021.0 |
| 20260830174335 | 23 | 341 | 17.7 | 29.0 | 0.00 | 0.00 | 0.00 | 67 | 1021.1 |
| 20260830173859 | 24 | 355 | 14.5 | 33.8 | 0.00 | 0.00 | 0.00 | 67 | 1021.0 |
| 20260830173315 | 24 | 9 | 19.3 | 33.8 | 0.00 | 0.00 | 0.00 | 67 | 1021.1 |
| 20260830172858 | 24 | 42 | 14.5 | 29.0 | 0.00 | 0.00 | 0.00 | 68 | 1021.0 |
| 20260830172333 | 24 | 89 | 12.9 | 27.4 | 0.00 | 0.00 | 0.00 | 68 | 1021.1 |
| 20260830171835 | 24 | 360 | 14.5 | 35.4 | 0.00 | 0.00 | 0.00 | 68 | 1021.1 |
| 20260830171331 | 24 | 360 | 12.9 | 35.4 | 0.00 | 0.00 | 0.00 | 68 | 1021.0 |
| 20260830170827 | 24 | 360 | 17.7 | 33.8 | 0.00 | 0.00 | 0.00 | 68 | 1021.0 |
| 20260830170348 | 24 | 59 | 11.3 | 35.4 | 0.00 | 0.00 | 0.00 | 68 | 1020.9 |
| 20260830165823 | 25 | 360 | 14.5 | 35.4 | 0.00 | 0.00 | 0.00 | 67 | 1021.0 |
| 20260830165341 | 25 | 360 | 16.1 | 33.8 | 0.00 | 0.00 | 0.00 | 67 | 1021.0 |
| 20260830164841 | 25 | 355 | 14.5 | 33.8 | 0.00 | 0.00 | 0.00 | 67 | 1021.0 |
| 20260830164327 | 25 | 360 | 14.5 | 35.4 | 0.00 | 0.00 | 0.00 | 67 | 1021.1 |
| 20260830163819 | 25 | 61 | 17.7 | 35.4 | 0.00 | 0.00 | 0.00 | 66 | 1021.1 |
| 20260830163337 | 25 | 355 | 14.5 | 29.0 | 0.00 | 0.00 | 0.00 | 66 | 1021.1 |
| 20260830162830 | 25 | 69 | 11.3 | 29.0 | 0.00 | 0.00 | 0.00 | 66 | 1021.1 |
| 20260830162326 | 25 | 360 | 12.9 | 30.6 | 0.00 | 0.00 | 0.00 | 66 | 1021.1 |
| 20260830161829 | 25 | 360 | 19.3 | 30.6 | 0.00 | 0.00 | 0.00 | 66 | 1021.2 |
| 20260830161320 | 25 | 94 | 12.9 | 30.6 | 0.00 | 0.00 | 0.00 | 66 | 1021.2 |
| 20260830160817 | 25 | 68 | 14.5 | 30.6 | 0.00 | 0.00 | 0.00 | 66 | 1021.3 |
| 20260830160320 | 25 | 360 | 16.1 | 32.2 | 0.00 | 0.00 | 0.00 | 65 | 1021.2 |
| 20260830155815 | 25 | 70 | 19.3 | 32.2 | 0.00 | 0.00 | 0.00 | 65 | 1021.4 |
| 20260830155319 | 25 | 346 | 12.9 | 24.1 | 0.00 | 0.00 | 0.00 | 66 | 1021.2 |
| 20260830154815 | 26 | 75 | 12.9 | 29.0 | 0.00 | 0.00 | 0.00 | 65 | 1021.4 |
| 20260830154336 | 26 | 360 | 16.1 | 29.0 | 0.00 | 0.00 | 0.00 | 65 | 1021.4 |
| 20260830153836 | 26 | 344 | 11.3 | 24.1 | 0.00 | 0.00 | 0.00 | 65 | 1021.4 |
| 20260830153328 | 26 | 328 | 11.3 | 24.1 | 0.00 | 0.00 | 0.00 | 64 | 1021.5 |
| 20260830152824 | 26 | 342 | 11.3 | 25.7 | 0.00 | 0.00 | 0.00 | 65 | 1021.4 |
| 20260830152326 | 26 | 360 | 12.9 | 25.7 | 0.00 | 0.00 | 0.00 | 65 | 1021.4 |
| 20260830151842 | 26 | 63 | 12.9 | 25.7 | 0.00 | 0.00 | 0.00 | 65 | 1021.4 |
| 20260830151343 | 26 | 34 | 9.7 | 22.5 | 0.00 | 0.00 | 0.00 | 66 | 1021.6 |
| 20260830150816 | 26 | 321 | 14.5 | 25.7 | 0.00 | 0.00 | 0.00 | 65 | 1021.6 |
| 20260830150319 | 26 | 360 | 16.1 | 25.7 | 0.00 | 0.00 | 0.00 | 65 | 1021.6 |
| 20260830145838 | 26 | 82 | 11.3 | 20.9 | 0.00 | 0.00 | 0.00 | 65 | 1021.5 |
| 20260830145314 | 26 | 299 | 6.4 | 19.3 | 0.00 | 0.00 | 0.00 | 64 | 1021.5 |
| 20260830144840 | 26 | 344 | 8.0 | 20.9 | 0.00 | 0.00 | 0.00 | 65 | 1021.5 |
| 20260830144331 | 26 | 360 | 9.7 | 20.9 | 0.00 | 0.00 | 0.00 | 64 | 1021.5 |
| 20260830143825 | 27 | 46 | 8.0 | 17.7 | 0.00 | 0.00 | 0.00 | 63 | 1021.5 |
| 20260830143328 | 27 | 82 | 8.0 | 17.7 | 0.00 | 0.00 | 0.00 | 64 | 1021.5 |
| 20260830142824 | 26 | 46 | 4.8 | 17.7 | 0.00 | 0.00 | 0.00 | 64 | 1021.5 |
| 20260830142349 | 27 | 335 | 9.7 | 17.7 | 0.00 | 0.00 | 0.00 | 63 | 1021.6 |
| 20260830141829 | 27 | 105 | 4.8 | 12.9 | 0.00 | 0.00 | 0.00 | 63 | 1021.6 |
| 20260830141316 | 26 | 309 | 8.0 | 17.7 | 0.00 | 0.00 | 0.00 | 64 | 1021.6 |
| 20260830140819 | 26 | 42 | 6.4 | 19.3 | 0.00 | 0.00 | 0.00 | 64 | 1021.7 |
| 20260830140333 | 26 | 360 | 8.0 | 19.3 | 0.00 | 0.00 | 0.00 | 64 | 1021.7 |
| 20260830135832 | 26 | 32 | 8.0 | 19.3 | 0.00 | 0.00 | 0.00 | 63 | 1021.7 |
| 20260830135334 | 26 | 38 | 11.3 | 19.3 | 0.00 | 0.00 | 0.00 | 65 | 1021.6 |
| 20260830134826 | 26 | 355 | 8.0 | 17.7 | 0.00 | 0.00 | 0.00 | 65 | 1021.7 |
| 20260830134326 | 26 | 46 | 8.0 | 20.9 | 0.00 | 0.00 | 0.00 | 66 | 1021.8 |
| 20260830133823 | 25 | 327 | 11.3 | 20.9 | 0.00 | 0.00 | 0.00 | 65 | 1021.8 |
| 20260830133318 | 26 | 46 | 9.7 | 22.5 | 0.00 | 0.00 | 0.00 | 66 | 1021.9 |
| 20260830132819 | 25 | 119 | 11.3 | 22.5 | 0.00 | 0.00 | 0.00 | 66 | 1021.8 |
| 20260830132316 | 25 | 81 | 8.0 | 19.3 | 0.00 | 0.00 | 0.00 | 66 | 1021.9 |
| 20260830131836 | 25 | 69 | 12.9 | 22.5 | 0.00 | 0.00 | 0.00 | 66 | 1021.8 |
| 20260830131358 | 25 | 67 | 11.3 | 22.5 | 0.00 | 0.00 | 0.00 | 67 | 1022.0 |
| 20260830130831 | 25 | 49 | 8.0 | 17.7 | 0.00 | 0.00 | 0.00 | 67 | 1021.9 |
| 20260830130326 | 25 | 70 | 9.7 | 22.5 | 0.00 | 0.00 | 0.00 | 67 | 1022.0 |
| 20260830125829 | 25 | 360 | 9.7 | 22.5 | 0.00 | 0.00 | 0.00 | 68 | 1022.1 |
| 20260830125352 | 25 | 323 | 12.9 | 22.5 | 0.00 | 0.00 | 0.00 | 68 | 1022.1 |
| 20260830124823 | 25 | 74 | 9.7 | 22.5 | 0.00 | 0.00 | 0.00 | 68 | 1022.2 |
| 20260830124319 | 25 | 48 | 11.3 | 19.3 | 0.00 | 0.00 | 0.00 | 69 | 1022.2 |
| 20260830123838 | 25 | 82 | 9.7 | 19.3 | 0.00 | 0.00 | 0.00 | 70 | 1022.2 |
| 20260830123329 | 25 | 43 | 8.0 | 22.5 | 0.00 | 0.00 | 0.00 | 69 | 1022.3 |
| 20260830122831 | 25 | 49 | 11.3 | 22.5 | 0.00 | 0.00 | 0.00 | 68 | 1022.2 |
| 20260830122334 | 25 | 55 | 8.0 | 16.1 | 0.00 | 0.00 | 0.00 | 68 | 1022.2 |
| 20260830121842 | 25 | 309 | 6.4 | 16.1 | 0.00 | 0.00 | 0.00 | 69 | 1022.4 |
| 20260830121323 | 25 | 309 | 6.4 | 22.5 | 0.00 | 0.00 | 0.00 | 70 | 1022.5 |
| 20260830120817 | 24 | 304 | 14.5 | 24.1 | 0.00 | 0.00 | 0.00 | 69 | 1022.5 |
| 20260830120314 | 24 | 302 | 11.3 | 24.1 | 0.00 | 0.00 | 0.00 | 70 | 1022.5 |
| 20260830115816 | 24 | 61 | 14.5 | 24.1 | 0.00 | 0.00 | 0.00 | 69 | 1022.6 |
| 20260830115317 | 25 | 360 | 9.7 | 20.9 | 0.00 | 0.00 | 0.00 | 70 | 1022.6 |
| 20260830114832 | 25 | 311 | 4.8 | 17.7 | 0.00 | 0.00 | 0.00 | 71 | 1022.6 |
| 20260830114334 | 24 | 316 | 6.4 | 17.7 | 0.00 | 0.00 | 0.00 | 72 | 1022.6 |
| 20260830113824 | 24 | 355 | 4.8 | 19.3 | 0.00 | 0.00 | 0.00 | 73 | 1022.7 |
| 20260830113325 | 23 | 47 | 4.8 | 20.9 | 0.00 | 0.00 | 0.00 | 74 | 1022.6 |
| 20260830112822 | 23 | 44 | 14.5 | 20.9 | 0.00 | 0.00 | 0.00 | 74 | 1022.8 |
| 20260830112346 | 23 | 355 | 6.4 | 20.9 | 0.00 | 0.00 | 0.00 | 74 | 1022.8 |
| 20260830111822 | 23 | 42 | 6.4 | 17.7 | 0.00 | 0.00 | 0.00 | 76 | 1022.7 |
| 20260830111324 | 23 | 316 | 8.0 | 22.5 | 0.00 | 0.00 | 0.00 | 76 | 1022.8 |
| 20260830110840 | 23 | 349 | 11.3 | 22.5 | 0.00 | 0.00 | 0.00 | 76 | 1022.8 |
| 20260830110314 | 23 | 327 | 16.1 | 22.5 | 0.00 | 0.00 | 0.00 | 76 | 1022.7 |
| 20260830105830 | 23 | 237 | 4.8 | 17.7 | 0.00 | 0.00 | 0.00 | 76 | 1022.8 |
| 20260830105330 | 23 | 333 | 8.0 | 19.3 | 0.00 | 0.00 | 0.00 | 76 | 1022.9 |
| 20260830104824 | 23 | 74 | 9.7 | 19.3 | 0.00 | 0.00 | 0.00 | 76 | 1022.8 |
| 20260830104319 | 23 | 317 | 11.3 | 19.3 | 0.00 | 0.00 | 0.00 | 76 | 1022.8 |
| 20260830103822 | 23 | 72 | 9.7 | 19.3 | 0.00 | 0.00 | 0.00 | 77 | 1022.7 |
| 20260830103338 | 23 | 34 | 6.4 | 17.7 | 0.00 | 0.00 | 0.00 | 76 | 1022.8 |
| 20260830102819 | 23 | 323 | 8.0 | 20.9 | 0.00 | 0.00 | 0.00 | 76 | 1022.9 |
| 20260830102323 | 23 | 299 | 14.5 | 20.9 | 0.00 | 0.00 | 0.00 | 75 | 1022.9 |
| 20260830101818 | 23 | 325 | 8.0 | 17.7 | 0.00 | 0.00 | 0.00 | 76 | 1022.7 |
| 20260830101314 | 23 | 291 | 4.8 | 20.9 | 0.00 | 0.00 | 0.00 | 75 | 1022.7 |
| 20260830100813 | 23 | 316 | 11.3 | 20.9 | 0.00 | 0.00 | 0.00 | 75 | 1022.7 |
| 20260830100335 | 23 | 61 | 12.9 | 22.5 | 0.00 | 0.00 | 0.00 | 75 | 1022.6 |
| 20260830095828 | 23 | 317 | 9.7 | 22.5 | 0.00 | 0.00 | 0.00 | 75 | 1022.6 |
| 20260830095331 | 23 | 290 | 9.7 | 16.1 | 0.00 | 0.00 | 0.00 | 76 | 1022.6 |
| 20260830094831 | 23 | 293 | 6.4 | 12.9 | 0.00 | 0.00 | 0.00 | 76 | 1022.6 |
| 20260830094325 | 23 | 70 | 4.8 | 12.9 | 0.00 | 0.00 | 0.00 | 77 | 1022.5 |
| 20260830093825 | 23 | 360 | 3.2 | 14.5 | 0.00 | 0.00 | 0.00 | 77 | 1022.5 |
| 20260830093321 | 22 | 34 | 4.8 | 16.1 | 0.00 | 0.00 | 0.00 | 78 | 1022.4 |
| 20260830092831 | 22 | 349 | 8.0 | 16.1 | 0.00 | 0.00 | 0.00 | 78 | 1022.5 |
| 20260830092327 | 22 | 360 | 6.4 | 12.9 | 0.00 | 0.00 | 0.00 | 79 | 1022.6 |
| 20260830091820 | 22 | 311 | 6.4 | 9.7 | 0.00 | 0.00 | 0.00 | 80 | 1022.5 |
| 20260830091321 | 22 | 333 | 4.8 | 9.7 | 0.00 | 0.00 | 0.00 | 81 | 1022.5 |
| 20260830090814 | 22 | 42 | 6.4 | 17.7 | 0.00 | 0.00 | 0.00 | 82 | 1022.5 |
| 20260830090315 | 22 | 42 | 8.0 | 14.5 | 0.00 | 0.00 | 0.00 | 82 | 1022.4 |
| 20260830085834 | 22 | 336 | 8.0 | 14.5 | 0.00 | 0.00 | 0.00 | 83 | 1022.4 |
| 20260830085327 | 22 | 304 | 4.8 | 12.9 | 0.00 | 0.00 | 0.00 | 84 | 1022.4 |
| 20260830084847 | 22 | 338 | 6.4 | 11.3 | 0.00 | 0.00 | 0.00 | 84 | 1022.4 |
| 20260830084321 | 21 | 34 | 3.2 | 17.7 | 0.00 | 0.00 | 0.00 | 85 | 1022.4 |
| 20260830083815 | 21 | 339 | 9.7 | 17.7 | 0.00 | 0.00 | 0.00 | 85 | 1022.3 |
| 20260830083318 | 21 | 301 | 8.0 | 16.1 | 0.00 | 0.00 | 0.00 | 85 | 1022.3 |
| 20260830082840 | 21 | 59 | 9.7 | 14.5 | 0.00 | 0.00 | 0.00 | 86 | 1022.2 |
| 20260830082315 | 21 | 38 | 8.0 | 19.3 | 0.00 | 0.00 | 0.00 | 86 | 1022.2 |
| 20260830081832 | 21 | 322 | 9.7 | 19.3 | 0.00 | 0.00 | 0.00 | 86 | 1022.2 |
| 20260830081329 | 21 | 311 | 4.8 | 17.7 | 0.00 | 0.00 | 0.00 | 86 | 1022.1 |
| 20260830080825 | 21 | 336 | 9.7 | 17.7 | 0.00 | 0.00 | 0.00 | 85 | 1022.2 |
| 20260830080326 | 21 | 76 | 6.4 | 16.1 | 0.00 | 0.00 | 0.00 | 85 | 1022.0 |
| 20260830075827 | 21 | 349 | 6.4 | 17.7 | 0.00 | 0.00 | 0.00 | 85 | 1022.0 |
| 20260830075344 | 22 | 360 | 8.0 | 17.7 | 0.00 | 0.00 | 0.00 | 86 | 1022.0 |
| 20260830074825 | 21 | 331 | 3.2 | 8.0 | 0.00 | 0.00 | 0.00 | 86 | 1022.0 |
| 20260830074321 | 21 | 313 | 1.6 | 12.9 | 0.00 | 0.00 | 0.00 | 87 | 1021.9 |
| 20260830073816 | 21 | 316 | 4.8 | 16.1 | 0.00 | 0.00 | 0.00 | 87 | 1021.8 |
| 20260830073319 | 21 | 349 | 8.0 | 16.1 | 0.00 | 0.00 | 0.00 | 87 | 1021.9 |
| 20260830072822 | 21 | 36 | 1.6 | 8.0 | 0.00 | 0.00 | 0.00 | 88 | 1021.8 |
| 20260830072339 | 21 | 311 | 4.8 | 9.7 | 0.00 | 0.00 | 0.00 | 87 | 1021.8 |
| 20260830071842 | 21 | 319 | 3.2 | 14.5 | 0.00 | 0.00 | 0.00 | 88 | 1021.7 |
| 20260830071317 | 21 | 348 | 4.8 | 14.5 | 0.00 | 0.00 | 0.00 | 88 | 1021.7 |
| 20260830070820 | 21 | 343 | 3.2 | 9.7 | 0.00 | 0.00 | 0.00 | 88 | 1021.7 |
| 20260830070336 | 21 | 355 | 4.8 | 9.7 | 0.00 | 0.00 | 0.00 | 88 | 1021.5 |
| 20260830065816 | 21 | 346 | 4.8 | 8.0 | 0.00 | 0.00 | 0.00 | 88 | 1021.6 |
| 20260830065313 | 21 | 342 | 3.2 | 8.0 | 0.00 | 0.00 | 0.00 | 88 | 1021.6 |
| 20260830064816 | 21 | 360 | 3.2 | 8.0 | 0.00 | 0.00 | 0.00 | 88 | 1021.5 |
| 20260830064313 | 21 | 355 | 0.0 | 6.4 | 0.00 | 0.00 | 0.00 | 88 | 1021.4 |
| 20260830063837 | 21 | 337 | 1.6 | 8.0 | 0.00 | 0.00 | 0.00 | 88 | 1021.4 |
| 20260830063333 | 21 | 338 | 3.2 | 8.0 | 0.00 | 0.00 | 0.00 | 89 | 1021.3 |
| 20260830062837 | 21 | 42 | 0.0 | 3.2 | 0.00 | 0.00 | 0.00 | 89 | 1021.3 |
| 20260830062329 | 21 | 42 | 0.0 | 3.2 | 0.00 | 0.00 | 0.00 | 89 | 1021.4 |
| 20260830061832 | 21 | 50 | 0.0 | 4.8 | 0.00 | 0.00 | 0.00 | 89 | 1021.3 |
| 20260830061313 | 21 | 53 | 0.0 | 6.4 | 0.00 | 0.00 | 0.00 | 89 | 1021.2 |
| 20260830060825 | 21 | 52 | 1.6 | 6.4 | 0.00 | 0.00 | 0.00 | 89 | 1021.2 |
| 20260830060329 | 20 | 360 | 0.0 | 0.0 | 0.00 | 0.00 | 0.00 | 89 | 1021.2 |
| 20260830055823 | 20 | 190 | 0.0 | 0.0 | 0.00 | 0.00 | 0.00 | 89 | 1021.1 |
| 20260830055326 | 20 | 190 | 0.0 | 0.0 | 0.00 | 0.00 | 0.00 | 89 | 1021.1 |
| 20260830054821 | 20 | 190 | 0.0 | 0.0 | 0.00 | 0.00 | 0.00 | 89 | 1021.0 |
| 20260830054318 | 20 | 190 | 0.0 | 0.0 | 0.00 | 0.00 | 0.00 | 89 | 1021.0 |
| 20260830053821 | 20 | 190 | 0.0 | 0.0 | 0.00 | 0.00 | 0.00 | 89 | 1021.0 |
| 20260830053317 | 20 | 190 | 0.0 | 3.2 | 0.00 | 0.00 | 0.00 | 89 | 1021.0 |
| 20260830052841 | 20 | 190 | 0.0 | 8.0 | 0.00 | 0.00 | 0.00 | 89 | 1021.0 |
| 20260830052313 | 20 | 190 | 3.2 | 8.0 | 0.00 | 0.00 | 0.00 | 89 | 1021.0 |
| 20260830051837 | 20 | 180 | 3.2 | 6.4 | 0.00 | 0.00 | 0.00 | 89 | 1021.0 |
| 20260830051313 | 20 | 178 | 1.6 | 4.8 | 0.00 | 0.00 | 0.00 | 89 | 1021.0 |
| 20260830050814 | 20 | 178 | 0.0 | 4.8 | 0.00 | 0.00 | 0.00 | 89 | 1021.1 |
| 20260830050330 | 21 | 174 | 1.6 | 3.2 | 0.00 | 0.00 | 0.00 | 88 | 1021.1 |
| 20260830045831 | 20 | 173 | 1.6 | 3.2 | 0.00 | 0.00 | 0.00 | 89 | 1021.0 |
| 20260830045335 | 20 | 147 | 0.0 | 0.0 | 0.00 | 0.00 | 0.00 | 89 | 1021.1 |
| 20260830044831 | 20 | 147 | 0.0 | 0.0 | 0.00 | 0.00 | 0.00 | 89 | 1021.1 |
| 20260830044328 | 20 | 108 | 0.0 | 0.0 | 0.00 | 0.00 | 0.00 | 89 | 1021.1 |
| 20260830043821 | 20 | 107 | 0.0 | 0.0 | 0.00 | 0.00 | 0.00 | 88 | 1021.1 |
| 20260830043324 | 20 | 107 | 0.0 | 0.0 | 0.00 | 0.00 | 0.00 | 89 | 1021.0 |
| 20260830042840 | 20 | 106 | 0.0 | 4.8 | 0.00 | 0.00 | 0.00 | 89 | 1020.9 |
| 20260830042322 | 20 | 106 | 3.2 | 4.8 | 0.00 | 0.00 | 0.00 | 88 | 1021.0 |
| 20260830041824 | 20 | 81 | 0.0 | 3.2 | 0.00 | 0.00 | 0.00 | 88 | 1021.0 |
| 20260830041346 | 20 | 76 | 0.0 | 0.0 | 0.00 | 0.00 | 0.00 | 88 | 1021.0 |
| 20260830040822 | 20 | 32 | 0.0 | 0.0 | 0.00 | 0.00 | 0.00 | 88 | 1021.0 |
| 20260830040319 | 20 | 33 | 0.0 | 1.6 | 0.00 | 0.00 | 0.00 | 89 | 1021.0 |
| 20260830035821 | 20 | 10 | 0.0 | 1.6 | 0.00 | 0.00 | 0.00 | 89 | 1020.8 |
| 20260830035324 | 20 | 10 | 0.0 | 3.2 | 0.00 | 0.00 | 0.00 | 89 | 1020.9 |
| 20260830034839 | 20 | 10 | 1.6 | 3.2 | 0.00 | 0.00 | 0.00 | 89 | 1021.0 |
| 20260830034338 | 20 | 205 | 0.0 | 1.6 | 0.00 | 0.00 | 0.00 | 89 | 1021.0 |
| 20260830033840 | 20 | 205 | 0.0 | 1.6 | 0.00 | 0.00 | 0.00 | 89 | 1021.1 |
| 20260830033315 | 20 | 205 | 0.0 | 0.0 | 0.00 | 0.00 | 0.00 | 89 | 1021.1 |
| 20260830032821 | 20 | 205 | 0.0 | 0.0 | 0.00 | 0.00 | 0.00 | 89 | 1021.2 |
| 20260830032318 | 20 | 205 | 0.0 | 1.6 | 0.00 | 0.00 | 0.00 | 89 | 1021.3 |
| 20260830031814 | 20 | 205 | 0.0 | 1.6 | 0.00 | 0.00 | 0.00 | 88 | 1021.3 |
| 20260830031318 | 20 | 205 | 0.0 | 1.6 | 0.00 | 0.00 | 0.00 | 89 | 1021.4 |
| 20260830030815 | 20 | 204 | 0.0 | 0.0 | 0.00 | 0.00 | 0.00 | 88 | 1021.3 |
| 20260830030339 | 20 | 204 | 0.0 | 0.0 | 0.00 | 0.00 | 0.00 | 88 | 1021.3 |
| 20260830025840 | 20 | 205 | 0.0 | 0.0 | 0.00 | 0.00 | 0.00 | 88 | 1021.4 |
| 20260830025316 | 20 | 204 | 0.0 | 0.0 | 0.00 | 0.00 | 0.00 | 88 | 1021.2 |
| 20260830024828 | 20 | 204 | 0.0 | 0.0 | 0.00 | 0.00 | 0.00 | 88 | 1021.4 |
| 20260830024351 | 20 | 204 | 0.0 | 0.0 | 0.00 | 0.00 | 0.00 | 88 | 1021.4 |
| 20260830023831 | 20 | 204 | 0.0 | 0.0 | 0.00 | 0.00 | 0.00 | 88 | 1021.3 |
| 20260830023325 | 20 | 204 | 0.0 | 0.0 | 0.00 | 0.00 | 0.00 | 88 | 1021.2 |
| 20260830022828 | 20 | 204 | 0.0 | 0.0 | 0.00 | 0.00 | 0.00 | 88 | 1021.2 |
| 20260830022323 | 20 | 204 | 0.0 | 0.0 | 0.00 | 0.00 | 0.00 | 88 | 1021.2 |
| 20260830021818 | 20 | 204 | 0.0 | 3.2 | 0.00 | 0.00 | 0.00 | 87 | 1021.3 |
| 20260830021328 | 20 | 204 | 0.0 | 4.8 | 0.00 | 0.00 | 0.00 | 87 | 1021.4 |
| 20260830020829 | 20 | 205 | 1.6 | 4.8 | 0.00 | 0.00 | 0.00 | 87 | 1021.3 |
| 20260830020346 | 20 | 207 | 1.6 | 4.8 | 0.00 | 0.00 | 0.00 | 87 | 1021.4 |
| 20260830015826 | 20 | 329 | 0.0 | 3.2 | 0.00 | 0.00 | 0.00 | 86 | 1021.3 |
| 20260830015336 | 20 | 329 | 1.6 | 3.2 | 0.00 | 0.00 | 0.00 | 86 | 1021.4 |
| 20260830014817 | 20 | 329 | 0.0 | 0.0 | 0.00 | 0.00 | 0.00 | 86 | 1021.4 |
| 20260830014313 | 20 | 329 | 0.0 | 0.0 | 0.00 | 0.00 | 0.00 | 86 | 1021.4 |
| 20260830013837 | 20 | 329 | 0.0 | 0.0 | 0.00 | 0.00 | 0.00 | 86 | 1021.4 |
| 20260830013352 | 21 | 329 | 0.0 | 0.0 | 0.00 | 0.00 | 0.00 | 86 | 1021.5 |
| 20260830012848 | 21 | 329 | 0.0 | 3.2 | 0.00 | 0.00 | 0.00 | 86 | 1021.4 |
| 20260830012350 | 21 | 329 | 1.6 | 4.8 | 0.00 | 0.00 | 0.00 | 86 | 1021.6 |
| 20260830011825 | 21 | 330 | 1.6 | 6.4 | 0.00 | 0.00 | 0.00 | 86 | 1021.5 |
| 20260830011319 | 21 | 329 | 1.6 | 8.0 | 0.00 | 0.00 | 0.00 | 86 | 1021.6 |
| 20260830010844 | 21 | 355 | 1.6 | 12.9 | 0.00 | 0.00 | 0.00 | 86 | 1021.6 |
| 20260830010325 | 21 | 327 | 4.8 | 12.9 | 0.00 | 0.00 | 0.00 | 86 | 1021.5 |
| 20260830005842 | 21 | 355 | 3.2 | 6.4 | 0.00 | 0.00 | 0.00 | 86 | 1021.6 |
| 20260830005323 | 21 | 338 | 4.8 | 6.4 | 0.00 | 0.00 | 0.00 | 86 | 1021.7 |
| 20260830004817 | 21 | 348 | 1.6 | 4.8 | 0.00 | 0.00 | 0.00 | 86 | 1021.7 |
| 20260830004320 | 21 | 313 | 0.0 | 3.2 | 0.00 | 0.00 | 0.00 | 85 | 1021.8 |
| 20260830003816 | 21 | 311 | 0.0 | 4.8 | 0.00 | 0.00 | 0.00 | 85 | 1021.7 |
| 20260830003339 | 21 | 315 | 0.0 | 1.6 | 0.00 | 0.00 | 0.00 | 85 | 1021.8 |
| 20260830002830 | 21 | 315 | 0.0 | 3.2 | 0.00 | 0.00 | 0.00 | 85 | 1021.8 |
| 20260830002331 | 21 | 316 | 0.0 | 4.8 | 0.00 | 0.00 | 0.00 | 85 | 1021.8 |
| 20260830001824 | 21 | 316 | 1.6 | 6.4 | 0.00 | 0.00 | 0.00 | 86 | 1021.8 |
| 20260830001345 | 21 | 338 | 3.2 | 9.7 | 0.00 | 0.00 | 0.00 | 86 | 1021.9 |
| 20260830000819 | 21 | 355 | 3.2 | 12.9 | 0.00 | 0.00 | 0.00 | 86 | 1021.9 |
| 20260830000338 | 21 | 329 | 3.2 | 8.0 | 0.00 | 0.00 | 0.00 | 86 | 1021.9 |